Date,TemperatureHighF,TemperatureAvgF,TemperatureLowF,DewpointHighF,DewpointAvgF,DewpointLowF,HumidityHigh,HumidityAvg,HumidityLow,PressureMaxIn,PressureMinIn,WindSpeedMaxMPH,WindSpeedAvgMPH,GustSpeedMaxMPH,PrecipitationSumIn
2013-1-1,20.4,10.4,4.7,10.8,5.6,1.9,89,81,65,30.28,30.24,2,0,3,0.00
2013-1-2,30.6,16.9,3.4,21.4,11.3,0.9,90,79,61,30.28,30.15,10,4,13,0.00
2013-1-3,31.2,25.3,13.5,26.3,20.3,9.7,90,82,65,30.38,30.17,8,3,21,0.00
2013-1-4,33.6,22.3,9.3,25.6,17.5,6.0,88,82,70,30.37,30.28,16,6,21,0.00
2013-1-5,37.1,29.6,20.0,34.5,26.9,17.7,94,89,78,30.28,30.00,14,5,18,0.01
2013-1-6,36.5,24.6,14.1,33.2,20.3,12.2,92,84,73,30.37,29.99,11,3,16,0.00
2013-1-7,40.5,28.8,13.9,30.9,24.1,12.0,93,83,63,30.37,30.13,14,6,20,0.00
2013-1-8,45.3,35.7,28.1,35.4,29.8,24.7,89,79,64,30.17,30.05,12,5,16,0.00
2013-1-9,49.2,38.2,24.1,37.3,30.9,22.1,93,76,51,30.52,30.08,11,3,15,0.00
2013-1-10,41.8,32.8,23.7,38.5,28.2,21.9,97,84,61,30.50,30.01,6,2,13,0.11
2013-1-11,55.6,51.8,45.7,51.7,49.2,45.2,99,91,83,29.81,29.67,16,10,25,0.48
2013-1-12,53.2,39.5,24.5,48.8,34.7,22.2,91,83,76,30.01,29.70,12,4,18,0.00
2013-1-13,24.4,18.8,12.6,22.2,14.8,8.7,91,84,75,30.32,29.93,5,2,10,0.00
2013-1-14,26.1,16.0,10.9,15.4,11.1,7.9,91,81,59,30.52,30.32,3,1,5,0.00
2013-1-15,30.5,18.6,8.8,19.0,13.4,6.5,93,81,60,30.48,30.17,4,0,8,0.00
2013-1-16,37.5,26.4,10.2,29.5,20.1,8.1,92,78,59,30.18,29.92,17,6,23,0.00
2013-1-17,34.7,28.2,18.3,30.7,22.2,15.3,93,79,55,30.47,30.11,6,1,9,0.00
2013-1-18,46.4,34.6,18.3,34.0,26.5,15.6,91,73,60,30.47,30.00,17,8,27,0.01
2013-1-19,51.2,41.9,28.7,40.7,33.2,17.2,77,71,61,30.10,29.81,17,8,23,0.00
2013-1-20,28.4,18.2,13.7,18.1,10.5,7.3,85,72,58,30.36,30.10,7,2,12,0.00
2013-1-21,14.2,8.8,3.8,9.2,0.4,-3.7,81,69,48,30.40,30.27,8,4,14,0.00
2013-1-22,15.1,8.2,0.3,3.8,-1.1,-5.8,79,66,49,30.50,30.39,9,1,14,0.00
2013-1-23,33.4,20.2,12.9,19.2,9.9,3.1,77,64,52,30.42,30.15,10,4,17,0.00
2013-1-24,22.1,15.6,6.1,10.2,4.8,-1.4,80,62,48,30.67,30.33,6,2,12,0.00
2013-1-25,37.3,26.4,18.2,21.9,15.8,8.7,80,64,50,30.33,30.04,16,5,22,0.00
2013-1-26,32.0,21.7,9.6,18.0,11.6,5.5,84,66,46,30.44,30.25,6,1,9,0.00
2013-1-27,43.5,33.1,27.6,43.0,28.2,18.0,98,83,65,30.38,29.89,13,7,21,0.08
2013-1-28,56.3,49.2,43.5,56.0,48.7,43.0,99,98,97,29.94,29.75,11,4,16,0.01
2013-1-29,65.3,56.7,42.5,61.8,55.7,41.5,99,96,88,29.75,29.38,15,6,25,1.63
2013-1-30,42.1,34.6,24.1,41.3,33.5,20.5,98,95,86,29.61,29.25,12,2,21,0.32
2013-1-31,15.8,9.6,3.7,10.0,3.5,-1.6,81,76,71,30.33,30.01,14,6,21,0.00
2013-2-1,20.2,9.6,0.7,17.5,3.2,-4.3,90,75,66,30.48,30.22,12,6,17,0.00
2013-2-2,27.8,21.1,14.5,24.5,17.0,10.0,92,84,76,30.22,30.07,11,3,16,0.00
2013-2-3,28.6,22.8,16.6,21.1,17.5,13.1,94,81,63,30.14,30.00,6,2,12,0.00
2013-2-4,35.9,27.2,17.2,28.3,21.9,14.5,90,80,70,30.01,29.82,9,3,15,0.00
2013-2-5,39.6,29.3,15.9,33.0,25.5,13.3,92,86,75,30.12,29.85,13,3,17,0.00
2013-2-6,44.1,34.4,20.0,34.9,29.4,18.6,96,82,68,30.22,30.06,9,3,16,0.00
2013-2-7,37.2,35.7,33.4,36.1,33.8,31.9,97,93,82,30.08,29.86,10,3,12,0.65
2013-2-8,33.3,28.0,25.5,31.8,24.6,21.9,94,87,83,30.40,30.04,8,2,12,0.00
2013-2-9,37.7,31.5,26.7,31.8,27.3,23.4,88,84,78,30.40,30.03,12,7,19,0.00
2013-2-10,48.9,42.3,36.0,47.8,39.6,31.6,98,91,66,30.05,29.48,23,12,37,0.63
2013-2-11,40.7,34.0,30.5,33.6,26.6,24.4,80,74,70,30.09,29.61,26,11,36,0.01
2013-2-12,38.5,31.3,25.1,29.6,25.9,23.3,93,81,67,30.17,29.95,6,1,10,0.00
2013-2-13,45.2,36.2,24.0,36.2,30.7,22.2,94,81,67,29.94,29.76,10,3,14,0.00
2013-2-14,40.9,36.8,32.7,34.0,31.8,29.8,92,82,73,30.03,29.72,8,4,18,0.00
2013-2-15,34.6,27.6,19.4,30.8,19.2,14.8,91,72,49,30.26,30.03,6,2,11,0.00
2013-2-16,28.6,20.1,12.6,17.1,12.6,8.3,83,73,58,30.26,30.17,7,2,14,0.00
2013-2-17,36.8,24.9,11.0,25.0,16.3,6.7,86,71,54,30.24,29.92,13,5,20,0.00
2013-2-18,53.0,39.3,23.1,47.5,33.1,19.0,95,79,66,29.92,29.46,16,9,25,0.39
2013-2-19,23.6,17.8,11.8,19.1,11.6,6.6,85,76,66,30.31,29.78,13,6,22,0.00
2013-2-20,22.1,13.4,4.7,14.7,-1.7,-99.9,88,70,65,30.46,30.31,5,-98,10,0.00
2013-2-21,29.2,22.3,12.1,24.7,18.9,9.7,94,87,79,30.41,29.91,11,4,21,0.00
2013-2-22,32.1,28.7,26.0,31.1,25.8,21.0,97,89,79,30.00,29.80,15,7,22,0.00
2013-2-23,29.1,24.3,17.1,22.3,18.9,14.4,90,80,73,30.03,29.98,9,4,13,0.00
2013-2-24,39.7,26.1,10.7,28.3,20.4,8.3,93,80,61,30.16,30.02,4,1,7,0.06
2013-2-25,42.9,34.0,22.2,34.9,29.0,20.2,94,82,69,30.15,29.87,6,2,14,0.01
2013-2-26,35.7,33.0,31.4,32.0,30.7,28.3,98,92,75,29.86,29.49,11,3,23,0.00
2013-2-27,33.0,31.4,29.4,31.3,30.2,28.7,98,95,92,29.82,29.59,3,1,12,0.08
2013-2-28,37.2,33.0,30.5,32.0,30.6,29.2,96,91,80,30.09,29.82,5,2,8,0.20
2013-3-1,31.3,27.1,24.2,29.1,23.2,20.0,95,85,78,30.25,30.09,5,2,9,0.02
2013-3-2,29.0,21.9,9.1,20.5,15.4,6.0,91,76,57,30.27,30.21,4,1,7,0.00
2013-3-3,39.8,19.6,1.6,18.3,10.6,-1.1,91,70,37,30.23,30.11,0,0,2,0.09
2013-3-4,35.7,30.8,24.4,29.6,24.8,14.9,87,78,66,30.13,29.92,10,4,18,0.00
2013-3-5,33.8,31.1,26.8,31.8,29.0,24.9,96,92,84,30.10,29.85,6,2,11,0.01
2013-3-6,31.7,27.6,22.4,25.6,23.4,19.6,92,84,76,30.35,30.10,6,2,11,0.00
2013-3-7,38.9,32.1,24.6,28.1,25.3,21.8,91,76,63,30.44,30.39,6,1,8,0.02
2013-3-8,43.5,34.1,21.7,34.5,28.7,19.5,93,81,68,30.46,30.25,9,2,14,0.03
2013-3-9,51.1,42.2,36.4,42.7,37.3,31.7,97,83,68,30.26,29.77,11,7,17,0.40
2013-3-10,51.8,47.7,43.4,50.1,46.5,41.5,98,96,81,29.83,29.55,11,3,15,1.10
2013-3-11,44.6,35.2,30.1,44.1,34.0,25.8,99,95,84,29.92,29.61,13,6,18,0.02
2013-3-12,37.1,27.6,26.0,30.2,18.5,-99.9,90,79,74,30.15,29.92,11,-42,15,0.00
2013-3-13,36.5,28.5,22.1,24.4,20.9,18.4,88,74,48,30.40,30.15,4,1,11,0.00
2013-3-14,44.4,32.5,19.9,32.9,26.3,18.0,94,79,58,30.40,30.09,11,3,15,0.00
2013-3-15,52.5,40.6,29.4,42.6,35.4,27.6,94,83,63,30.09,29.68,5,0,7,0.00
2013-3-16,42.4,35.3,30.3,40.5,31.9,26.9,97,88,73,30.13,29.65,4,1,8,0.00
2013-3-17,36.0,31.9,28.6,28.8,26.3,22.8,88,79,71,30.19,29.93,8,4,15,0.00
2013-3-18,39.5,31.9,25.0,34.9,27.9,16.3,95,85,68,29.95,29.70,11,4,20,0.01
2013-3-19,39.0,28.0,18.8,21.9,16.5,10.2,78,63,40,30.18,29.93,13,4,21,0.00
2013-3-20,29.4,22.9,14.9,21.8,12.3,7.2,80,64,48,30.23,30.13,6,2,18,0.00
2013-3-21,37.1,23.1,10.7,16.8,12.3,7.4,87,65,40,30.15,30.04,3,0,8,0.00
2013-3-22,44.2,31.0,15.8,25.6,19.6,13.5,93,65,37,30.11,30.02,3,0,6,0.00
2013-3-23,47.5,36.8,26.9,28.7,25.5,22.7,85,65,45,30.12,29.98,5,1,9,0.00
2013-3-24,33.2,30.7,28.7,31.8,29.1,25.5,96,94,74,30.01,29.66,2,0,13,0.01
2013-3-25,34.6,30.1,27.4,28.7,26.5,23.4,96,87,77,30.16,29.79,5,0,8,0.21
2013-3-26,34.7,32.9,31.2,29.1,27.9,26.6,84,82,79,30.32,30.16,0,0,1,0.03
2013-3-27,44.0,35.3,25.4,30.8,26.1,21.6,91,70,45,30.38,30.32,7,1,11,0.00
2013-3-28,51.9,36.9,20.8,36.5,28.3,19.1,95,73,47,30.40,30.29,4,0,10,0.00
2013-3-29,58.6,44.1,31.5,36.8,32.4,28.7,92,66,39,30.33,30.22,4,0,7,0.00
2013-3-30,56.6,45.4,29.1,45.1,38.0,26.8,94,76,59,30.23,29.89,15,5,21,0.00
2013-3-31,60.2,49.5,37.2,46.9,39.7,28.4,93,71,40,29.97,29.80,11,3,22,0.00
2013-4-1,43.0,35.0,27.1,28.9,22.6,18.6,85,62,39,30.26,29.97,5,2,11,0.00
2013-4-2,47.2,31.3,17.9,24.4,12.3,-99.9,91,57,27,30.36,30.26,6,-59,14,0.00
2013-4-3,51.0,35.0,22.8,23.4,13.4,-99.9,81,50,25,30.48,30.32,5,-46,13,0.00
2013-4-4,60.4,41.8,23.1,30.1,17.0,-99.9,86,46,24,30.32,30.01,7,-61,11,0.00
2013-4-5,58.9,45.7,31.9,36.0,27.0,-99.9,90,54,28,30.22,30.05,7,-15,15,0.00
2013-4-6,70.1,56.8,42.1,51.1,36.9,24.3,79,48,32,30.08,29.62,23,10,34,0.00
2013-4-7,68.4,55.0,38.1,48.6,43.5,36.8,96,68,42,29.95,29.71,6,1,10,0.00
2013-4-8,72.6,62.8,54.5,60.6,55.6,42.3,97,78,58,29.86,29.56,19,6,26,1.02
2013-4-9,77.4,65.3,51.7,64.5,58.5,47.6,93,80,59,29.86,29.76,16,5,22,0.00
2013-4-10,51.6,44.7,40.1,47.8,43.1,38.2,98,94,86,29.94,29.67,12,4,23,1.64
2013-4-11,49.5,44.1,37.5,46.9,41.8,31.9,98,92,79,29.68,29.60,15,6,22,0.05
2013-4-12,42.7,39.1,36.8,37.8,34.5,31.7,93,84,74,29.93,29.62,15,7,21,0.02
2013-4-13,51.1,43.6,35.0,37.8,33.8,26.4,88,69,54,30.01,29.92,10,3,18,0.00
2013-4-14,74.5,59.6,45.0,55.1,46.1,36.4,82,62,41,29.96,29.57,21,9,29,0.00
2013-4-15,64.6,54.2,43.3,55.7,50.3,39.4,98,87,65,30.00,29.64,21,4,27,0.51
2013-4-16,52.9,46.7,39.6,44.5,39.9,36.0,91,78,60,30.21,29.96,3,1,7,0.01
2013-4-17,57.8,47.9,44.0,57.5,44.2,36.6,99,88,72,30.24,29.68,13,4,26,3.14
2013-4-18,62.1,52.4,38.4,61.7,51.1,32.3,100,95,79,29.72,29.42,23,9,30,2.52
2013-4-19,40.1,37.4,35.3,33.6,31.1,27.5,87,78,71,30.03,29.60,18,9,31,0.01
2013-4-20,49.1,39.2,29.2,32.8,29.0,26.6,91,68,45,30.39,30.03,7,1,11,0.00
2013-4-21,57.8,47.2,37.0,43.6,35.4,29.2,75,64,55,30.46,30.27,13,7,19,0.00
2013-4-22,67.5,56.5,43.3,49.2,40.6,35.0,74,57,35,30.29,30.00,12,5,17,0.00
2013-4-23,57.4,45.1,38.0,51.0,43.0,36.7,96,93,74,30.04,29.91,8,2,9,0.70
2013-4-24,50.2,44.5,36.6,36.8,34.3,31.1,94,69,50,30.17,29.98,12,4,15,0.04
2013-4-25,56.0,46.4,39.3,35.8,32.9,27.0,83,61,39,30.31,30.13,11,4,19,0.00
2013-4-26,63.7,52.9,37.6,51.5,42.4,32.7,86,68,56,30.32,30.24,16,8,21,0.00
2013-4-27,63.3,53.8,41.9,51.3,47.1,40.8,97,80,51,30.29,29.97,9,2,14,0.00
2013-4-28,70.1,58.4,51.8,55.5,52.6,50.6,98,82,56,29.97,29.82,7,1,10,0.00
2013-4-29,75.8,62.6,47.5,62.4,55.2,46.5,97,78,59,29.90,29.70,16,8,22,0.00
2013-4-30,85.6,72.8,61.5,64.4,59.5,54.0,92,66,35,29.90,29.71,16,10,20,0.00
2013-5-1,83.5,73.3,61.6,60.3,56.1,51.1,83,57,34,30.07,29.90,11,5,22,0.00
2013-5-2,69.6,59.3,44.7,57.7,51.8,42.6,95,77,61,30.15,30.05,5,2,12,0.21
2013-5-3,59.1,49.5,43.3,58.8,48.6,42.2,99,97,93,30.10,29.82,8,1,20,1.55
2013-5-4,65.0,59.3,54.2,59.8,56.6,53.1,97,91,76,30.02,29.84,8,2,12,0.14
2013-5-5,74.6,61.0,50.0,60.4,53.0,46.8,99,78,39,30.01,29.89,7,2,19,0.02
2013-5-6,77.7,65.2,53.8,57.0,49.7,39.0,92,61,31,30.01,29.93,4,1,10,0.00
2013-5-7,81.2,65.2,45.9,51.5,43.7,34.8,91,52,21,30.03,29.94,3,0,7,0.00
2013-5-8,80.6,66.8,48.9,57.8,50.9,45.1,96,62,29,30.01,29.93,5,1,7,0.00
2013-5-9,71.3,62.8,59.1,62.9,60.2,56.8,98,92,65,29.95,29.78,17,3,35,0.61
2013-5-10,62.4,53.8,49.3,61.5,51.7,47.4,97,93,87,29.98,29.78,7,1,10,0.01
2013-5-11,61.6,51.9,40.7,53.7,41.4,31.0,98,71,39,30.11,29.92,11,3,16,0.01
2013-5-12,59.2,45.5,34.6,36.6,32.6,28.7,90,64,33,30.19,30.11,4,1,11,0.00
2013-5-13,69.5,53.9,32.3,43.2,36.7,30.7,97,59,28,30.20,29.99,10,2,18,0.00
2013-5-14,90.3,73.1,55.1,66.9,56.0,42.2,75,56,38,29.99,29.65,13,8,18,0.00
2013-5-15,83.9,74.1,60.5,66.6,58.7,52.1,92,60,36,29.82,29.69,16,4,21,0.06
2013-5-16,84.6,70.9,57.4,63.1,57.3,49.9,94,65,36,29.91,29.80,9,1,17,0.08
2013-5-17,81.1,70.5,57.7,69.7,61.4,56.2,96,75,45,29.96,29.88,9,2,13,0.12
2013-5-18,82.4,72.0,63.5,68.5,64.6,62.6,97,79,54,29.99,29.86,7,2,12,0.01
2013-5-19,89.3,75.9,64.1,72.5,66.9,58.6,95,75,54,29.88,29.66,15,5,23,0.00
2013-5-20,82.5,72.7,61.8,70.3,63.8,60.6,98,75,51,29.81,29.63,19,8,35,1.14
2013-5-21,80.2,71.0,62.4,67.2,63.5,60.7,98,79,56,29.69,29.62,15,7,20,0.00
2013-5-22,70.2,64.7,59.9,63.4,58.9,56.0,95,82,62,29.77,29.60,12,4,17,0.18
2013-5-23,63.7,58.0,48.3,56.9,53.7,47.2,97,86,70,30.25,29.77,7,2,10,0.07
2013-5-24,67.1,53.5,38.0,47.9,42.7,36.5,96,70,37,30.44,30.25,5,1,12,0.01
2013-5-25,54.0,50.3,47.0,50.6,45.2,37.9,94,83,63,30.40,30.22,6,2,12,0.49
2013-5-26,64.1,55.6,50.1,59.5,52.9,47.6,96,91,84,30.26,30.03,9,3,14,0.73
2013-6-14,80.4,68.9,55.5,62.4,58.1,53.6,95,70,46,30.10,29.94,6,1,11,0.00
2013-6-15,75.8,70.8,64.0,70.3,65.3,58.2,94,83,75,30.01,29.85,22,3,32,0.29
2013-6-16,82.3,71.6,63.9,72.7,67.4,62.6,98,87,68,29.94,29.87,5,2,10,0.00
2013-6-17,85.4,75.1,60.3,73.3,65.7,59.7,99,76,48,29.93,29.85,6,1,8,0.01
2013-6-18,80.2,71.0,62.5,67.0,62.1,56.3,97,75,54,30.01,29.84,4,1,10,0.00
2013-6-19,85.1,70.2,53.6,63.5,57.2,50.6,90,66,36,30.09,30.00,4,1,6,0.00
2013-6-20,89.1,77.6,60.8,69.7,64.4,57.8,94,66,44,30.09,30.00,6,2,10,0.00
2013-6-21,87.2,75.8,68.2,76.7,68.7,64.0,94,79,62,30.10,29.91,10,5,16,0.12
2013-6-22,86.1,76.9,68.3,77.6,71.7,64.9,93,84,71,30.03,29.92,11,3,17,0.00
2013-6-23,87.4,73.7,66.4,75.6,68.9,64.5,96,86,64,30.01,29.87,9,3,13,0.04
2013-6-24,69.2,67.9,65.0,67.8,66.8,64.2,99,96,93,30.06,29.83,8,1,14,4.38
2013-6-25,85.5,76.5,68.1,78.2,72.5,67.2,99,88,71,29.90,29.76,21,4,44,0.62
2013-6-26,86.5,75.6,66.9,77.7,72.2,65.9,99,90,69,29.79,29.68,10,2,14,0.98
2013-6-27,88.3,78.1,69.7,76.5,72.2,67.7,99,83,61,29.81,29.72,7,1,10,0.00
2013-6-28,83.9,73.8,63.1,69.9,65.3,62.4,99,77,51,29.77,29.63,5,1,12,0.00
2013-6-29,73.5,67.3,62.7,67.3,64.0,59.9,96,89,79,29.76,29.60,2,0,7,0.26
2013-6-30,80.3,67.0,59.3,68.1,61.6,54.5,96,84,57,29.96,29.75,6,1,13,0.20
2013-7-1,78.3,67.4,55.4,61.3,55.7,51.8,90,68,47,30.03,29.95,3,1,11,0.00
2013-7-2,76.6,66.7,56.0,61.2,56.0,47.8,90,70,43,30.05,29.99,4,1,9,0.00
2013-7-3,79.3,65.7,56.1,61.8,56.8,52.6,96,76,43,30.06,29.99,3,0,9,0.00
2013-7-4,84.5,72.4,58.1,69.2,62.9,56.4,95,74,47,30.06,29.97,7,2,10,0.00
2013-7-5,85.0,74.0,61.2,70.3,64.4,60.1,97,74,49,30.05,29.97,5,2,9,0.00
2013-7-6,85.6,74.1,62.0,72.0,67.3,61.0,98,81,55,30.02,29.94,5,2,10,0.00
2013-7-7,88.6,78.6,68.6,75.1,70.8,65.2,91,78,53,29.98,29.91,7,3,14,0.00
2013-7-8,86.0,77.7,70.9,77.8,73.0,69.5,98,86,72,30.01,29.93,12,4,16,0.37
2013-7-9,87.9,80.6,73.7,80.3,76.4,73.0,98,88,70,29.97,29.84,7,1,10,0.00
2013-7-10,87.3,78.2,63.1,76.6,71.0,61.3,97,80,57,29.99,29.80,2,0,7,0.00
2013-7-11,80.8,72.5,59.9,66.7,61.8,58.1,97,72,48,30.07,29.98,3,0,9,0.00
2013-7-12,83.9,69.8,54.4,64.1,58.9,53.7,98,72,41,30.12,30.03,3,0,7,0.00
2013-7-13,83.6,71.6,57.0,66.8,62.3,55.9,97,75,51,30.11,30.04,4,1,9,0.00
2013-7-14,88.7,77.5,66.3,73.3,68.8,64.2,94,76,54,30.14,30.07,6,1,10,0.00
2013-7-15,88.9,79.4,70.6,77.8,73.7,69.3,97,84,63,30.21,30.13,4,1,9,0.00
2013-7-16,90.7,81.1,72.6,77.7,74.7,71.7,98,82,60,30.27,30.19,5,2,7,0.00
2013-7-17,93.5,81.8,69.2,78.8,74.4,68.6,99,81,54,30.28,30.15,3,0,7,0.00
2013-7-18,93.1,82.9,71.2,79.2,75.6,70.6,99,80,58,30.16,29.94,6,2,9,0.00
2013-7-19,92.8,83.8,74.0,77.4,73.9,71.3,93,74,52,29.94,29.76,11,4,16,0.00
2013-7-20,87.9,77.9,67.8,74.5,70.1,65.7,99,79,49,29.89,29.79,6,0,14,0.44
2013-7-21,80.5,73.3,64.7,74.8,70.1,64.0,99,90,75,29.90,29.81,3,0,7,0.07
2013-7-22,86.7,75.2,64.7,75.5,70.2,64.2,99,86,64,29.84,29.73,5,1,10,0.22
2013-7-23,80.7,70.6,63.5,73.6,66.2,59.9,98,87,68,29.92,29.73,3,0,6,0.01
2013-7-24,77.3,66.0,55.5,62.1,58.2,54.6,98,78,53,30.04,29.92,4,0,8,0.00
2013-7-25,81.9,68.5,52.0,63.9,59.4,51.5,98,75,50,30.09,30.01,4,1,6,0.00
2013-7-26,73.3,65.1,57.2,69.9,63.1,56.6,98,94,85,30.02,29.89,8,1,11,1.37
2013-7-27,67.5,60.2,52.6,60.0,54.7,50.4,99,84,58,29.96,29.90,3,1,10,0.01
2013-7-28,72.5,60.9,51.2,60.1,53.7,48.7,96,79,56,30.04,29.92,6,2,12,0.00
2013-7-29,78.8,63.7,47.9,62.8,55.7,47.4,98,78,48,30.14,30.04,3,0,8,0.00
2013-7-30,68.0,65.7,62.5,67.4,63.7,58.8,99,94,79,30.13,30.00,3,1,8,1.08
2013-7-31,77.6,69.9,64.5,70.5,67.9,63.7,99,94,76,30.02,29.95,1,0,3,0.02
2013-8-1,82.6,70.5,58.1,68.5,64.0,57.8,99,82,53,30.02,29.92,5,0,8,0.00
2013-8-2,83.7,74.0,64.4,74.0,68.5,62.2,98,84,65,29.93,29.84,7,3,11,0.95
2013-8-3,80.9,70.9,60.6,68.2,64.4,59.5,99,82,51,30.10,29.93,1,0,4,0.01
2013-8-4,80.7,68.4,56.5,64.8,59.7,55.7,97,77,45,30.16,30.07,2,0,5,0.00
2013-8-5,75.9,67.1,58.7,69.2,63.8,57.8,97,90,77,30.08,29.84,7,2,10,0.19
2013-8-6,85.9,74.9,65.6,77.3,71.2,64.8,99,89,71,29.88,29.78,5,2,7,0.00
2013-8-7,87.2,77.1,67.6,79.8,73.1,65.8,98,88,65,29.91,29.76,5,1,10,0.00
2013-8-8,80.7,71.1,63.3,71.6,66.5,62.7,98,86,67,29.97,29.90,4,1,9,0.01
2013-8-9,81.5,71.5,57.8,70.8,65.1,56.7,98,82,58,30.04,29.95,3,0,5,0.00
2013-8-10,80.3,69.8,58.6,67.9,62.8,57.7,98,80,53,30.12,30.03,2,0,8,0.00
2013-8-11,82.3,69.9,54.5,72.1,63.1,53.9,98,81,55,30.12,30.02,5,1,8,0.01
2013-8-12,80.1,71.3,62.5,74.1,67.6,61.7,98,89,71,30.03,29.87,5,1,8,0.25
2013-8-13,74.2,64.4,52.2,63.4,57.9,50.5,98,81,52,30.14,29.92,4,0,11,0.04
2013-8-14,75.1,61.0,48.1,61.1,54.1,47.6,98,81,47,30.21,30.12,3,0,7,0.00
2013-8-15,75.3,62.5,52.7,61.6,56.3,51.9,98,82,50,30.15,30.08,2,0,4,0.00
2013-8-16,80.5,66.0,52.5,65.5,58.6,51.7,98,80,46,30.16,30.10,3,0,7,0.00
2013-8-17,78.6,66.0,53.2,63.7,58.9,52.7,98,80,52,30.20,30.11,4,1,11,0.01
2013-8-18,84.1,67.7,53.7,67.7,60.0,53.1,98,79,48,30.18,30.07,3,0,6,0.00
2013-8-19,66.2,65.1,64.1,64.9,64.0,63.2,97,96,95,30.03,30.03,0,0,0,0.00
2013-8-20,85.2,72.9,61.5,73.1,66.8,60.9,99,83,57,30.08,30.00,5,2,9,0.00
2013-8-21,87.0,75.1,64.1,74.3,68.5,63.2,98,82,59,30.07,29.96,7,2,12,0.00
2013-8-22,79.0,73.4,69.4,73.4,69.5,67.0,95,88,77,30.07,29.98,6,1,11,0.00
2013-8-23,82.7,71.6,62.2,70.9,66.4,61.6,99,85,59,30.13,30.05,5,1,11,0.00
2013-8-24,86.3,72.2,58.6,73.1,65.7,57.3,97,81,59,30.20,30.11,5,1,9,0.00
2013-8-25,88.3,76.5,64.7,74.1,68.6,62.8,94,78,54,30.23,30.12,7,2,12,0.00
2013-8-26,90.0,77.4,62.4,77.8,70.9,61.5,98,82,60,30.14,29.97,5,2,8,0.00
2013-8-27,92.5,80.8,70.8,77.6,72.3,65.5,96,77,54,29.99,29.86,9,3,16,0.00
2013-8-28,93.5,81.9,72.4,82.4,73.1,65.3,95,76,62,29.97,29.87,6,2,11,0.00
2013-8-29,84.5,75.8,69.5,75.6,72.1,68.6,98,89,72,30.03,29.93,5,1,8,0.00
2013-8-30,95.7,80.9,68.7,80.2,73.3,66.6,99,80,47,29.94,29.75,9,2,19,0.00
2013-8-31,90.1,78.1,69.8,79.9,71.4,64.3,97,80,68,29.78,29.71,3,1,6,0.00
2013-9-1,89.3,74.1,62.9,76.1,68.3,62.3,99,84,55,29.82,29.71,7,1,11,0.01
2013-9-2,81.5,69.4,58.4,68.9,61.7,55.5,96,78,52,29.97,29.81,3,0,7,0.00
2013-9-3,78.1,64.1,51.2,62.9,57.6,50.4,98,82,54,30.08,29.97,5,1,8,0.00
2013-9-4,84.6,67.0,50.4,65.8,58.5,49.9,99,78,43,30.13,30.03,4,1,11,0.01
2013-9-5,87.0,72.3,57.9,72.2,64.0,57.3,98,78,49,30.18,30.09,3,1,6,0.00
2013-9-6,87.8,71.9,56.7,68.7,62.0,53.6,96,73,48,30.16,29.99,6,2,10,0.00
2013-9-7,88.6,74.5,61.1,72.1,66.8,60.1,98,79,54,30.00,29.86,9,2,13,0.00
2013-9-8,86.2,76.8,69.6,74.5,70.7,68.1,96,82,65,29.95,29.84,5,2,11,0.03
2013-9-9,96.3,81.9,71.1,77.6,73.0,69.0,97,77,49,29.88,29.80,8,4,12,0.00
2013-9-10,95.2,81.5,66.6,72.5,68.7,64.3,93,68,43,30.00,29.88,11,3,16,0.00
2013-9-11,92.5,78.8,70.6,73.6,69.0,65.2,94,73,50,30.03,29.96,10,2,14,0.03
2013-9-12,83.0,69.8,54.6,70.6,57.6,50.0,96,69,34,30.07,29.96,4,1,8,0.01
2013-9-13,72.0,58.7,46.2,51.5,46.1,38.9,95,67,31,30.17,30.05,4,1,10,0.00
2013-9-14,74.4,57.0,40.6,53.7,45.9,39.5,98,71,31,30.18,30.00,5,1,16,0.00
2013-9-15,66.2,59.1,51.8,61.2,54.5,47.0,98,85,70,30.15,29.95,5,1,10,0.21
2013-9-16,70.3,59.7,52.1,57.3,53.4,47.8,99,81,56,30.32,30.14,4,1,11,0.01
2013-9-17,73.6,60.7,47.9,60.1,53.9,46.0,96,80,59,30.30,30.07,6,1,11,0.00
2013-9-18,87.6,73.4,62.4,71.6,64.8,56.1,87,75,58,30.07,29.87,10,4,16,0.00
2013-9-19,91.5,79.5,67.1,73.8,70.2,65.2,97,75,54,29.90,29.73,10,5,14,0.85
2013-9-20,72.2,65.6,53.0,68.1,61.0,51.6,99,86,53,29.87,29.76,8,2,14,0.19
2013-9-21,70.9,58.0,48.2,55.6,50.9,47.1,97,80,47,29.93,29.85,3,1,9,0.01
2013-9-22,71.7,57.3,43.7,53.8,49.0,42.9,98,77,43,30.04,29.93,3,0,6,0.01
2013-9-23,74.7,59.4,46.8,54.4,49.6,44.7,93,73,42,30.06,29.94,6,2,13,0.00
2013-9-24,75.3,61.6,48.3,59.4,52.9,46.9,96,75,50,29.98,29.85,6,1,15,0.00
2013-9-25,59.9,57.2,54.3,53.4,52.1,50.5,87,83,79,29.88,29.85,2,1,5,0.00
2013-9-26,81.5,67.0,58.2,61.6,57.3,52.4,87,72,46,30.02,29.95,3,0,4,0.00
2013-9-27,83.0,63.6,49.0,60.9,53.6,47.8,97,74,36,30.10,29.99,8,2,13,0.00
2013-10-2,81.3,71.8,63.8,69.5,66.9,63.5,99,86,63,30.04,29.92,5,2,10,0.01
2013-10-3,82.4,70.5,64.5,73.4,67.7,62.9,99,91,68,29.92,29.78,9,4,13,1.43
2013-10-4,84.1,73.8,65.0,74.1,69.0,62.9,98,86,64,29.93,29.85,7,4,11,0.00
2013-10-5,75.9,72.3,70.1,71.7,69.6,68.0,96,91,77,29.88,29.79,11,4,14,0.03
2013-10-11,64.6,64.0,63.6,57.1,56.5,56.2,78,77,75,29.91,29.89,5,2,7,0.00
2013-10-12,65.0,63.6,61.5,60.9,58.6,56.9,93,84,77,29.94,29.89,5,3,9,0.00
2013-10-26,49.9,36.4,29.5,34.4,30.1,27.0,92,79,55,30.12,30.05,1,0,9,0.00
2013-10-27,56.6,40.2,24.4,36.1,30.3,23.2,96,71,41,30.11,29.99,10,2,14,0.00
2013-10-28,61.2,44.7,29.3,41.9,34.9,27.5,96,72,38,30.32,30.06,3,1,10,0.00
2013-10-29,54.6,46.5,38.5,50.9,42.0,36.9,96,85,64,30.31,30.10,4,2,9,0.00
2013-10-30,64.1,57.2,52.0,63.8,56.6,50.9,99,98,96,30.09,29.75,10,2,15,1.58
2013-10-31,63.8,56.9,44.9,63.5,56.1,43.0,99,97,92,29.74,29.27,10,4,21,1.25
2013-11-1,51.5,45.9,39.0,45.6,43.5,38.1,97,92,77,29.78,29.48,10,4,15,0.05
2013-11-2,51.8,41.2,29.9,41.3,37.1,28.6,98,86,57,30.17,29.78,3,0,8,0.01
2013-11-3,53.9,40.8,25.8,40.2,33.7,24.8,98,78,51,30.30,30.16,8,3,14,0.01
2013-11-4,57.4,51.3,45.2,46.5,41.9,37.1,79,71,60,30.19,30.06,16,7,21,0.00
2013-11-5,55.3,52.9,51.5,53.0,50.1,46.1,96,90,79,30.23,29.91,16,6,26,0.24
2013-11-6,56.7,45.2,31.6,56.3,43.1,29.0,99,92,82,30.22,29.81,13,4,18,0.68
2013-11-7,46.8,34.7,24.8,39.3,31.0,23.6,97,87,70,30.31,30.22,13,2,19,0.00
2013-11-8,48.7,39.5,24.0,37.6,31.4,23.0,97,75,55,30.35,29.96,17,6,24,0.01
2013-11-9,61.1,51.4,41.6,43.0,39.8,35.9,80,65,48,30.20,29.91,17,7,22,0.00
2013-11-10,49.3,40.1,29.6,35.9,31.9,26.6,90,73,52,30.41,30.19,6,1,10,0.00
2013-11-11,50.2,39.2,22.0,39.9,32.9,19.5,96,79,64,30.56,30.11,7,2,11,0.04
2013-11-12,32.1,22.9,16.2,24.3,18.3,13.5,91,83,66,30.78,30.56,3,0,8,0.00
2013-11-13,41.9,28.8,14.4,23.7,18.6,12.3,93,68,38,30.68,30.21,14,7,20,0.01
2013-11-14,50.0,39.5,31.0,27.7,24.5,21.0,67,56,39,30.22,29.97,10,6,15,0.00
2013-11-15,48.0,41.8,36.9,39.7,33.1,27.5,85,71,58,30.00,29.90,10,5,13,0.00
2013-11-16,59.8,52.9,42.1,56.8,50.2,38.0,93,90,85,29.90,29.55,19,12,27,0.07
2013-11-17,68.4,55.1,43.9,64.7,50.8,39.7,96,85,75,29.86,29.18,23,10,36,0.78
2013-11-18,47.0,40.0,29.3,39.8,33.2,26.1,90,77,58,30.30,29.85,8,2,14,0.00
2013-11-19,46.0,34.9,23.8,30.4,27.5,21.8,95,76,50,30.37,30.24,7,1,10,0.00
2013-11-20,41.8,37.7,33.7,38.5,32.7,28.5,93,82,70,30.26,30.05,12,6,19,0.18
2013-11-21,48.9,45.0,41.3,46.2,42.5,38.5,97,91,85,30.24,30.09,4,1,6,0.11
2013-11-22,41.3,34.8,24.1,39.8,32.2,22.0,97,90,79,30.54,30.23,6,2,11,0.03
2013-11-23,24.5,20.8,11.1,22.1,14.6,6.9,92,77,55,30.78,30.53,7,2,11,0.00
2013-11-24,28.9,18.0,7.7,13.9,8.6,2.2,89,69,32,30.81,30.43,8,2,12,0.00
2013-11-25,33.7,28.8,21.2,26.2,20.7,13.6,84,71,61,30.43,30.14,15,7,16,0.00
2013-11-26,35.5,27.0,16.1,28.2,20.1,9.1,87,75,59,30.27,30.09,5,2,11,0.00
2013-11-27,28.8,19.3,12.1,14.1,10.5,6.6,82,69,49,30.35,30.25,5,1,8,0.00
2013-11-28,38.3,26.0,17.0,22.6,17.0,12.1,87,69,51,30.54,30.20,10,3,17,0.00
2013-11-29,37.6,25.9,10.7,24.6,18.4,8.6,93,74,53,30.65,30.40,8,2,11,0.00
2013-11-30,40.2,32.6,28.7,32.5,27.1,24.7,88,80,73,30.40,30.24,9,5,13,0.00
2013-12-4,54.2,47.3,32.3,53.7,46.0,29.7,99,95,86,29.82,29.48,14,6,21,0.02
2013-12-5,32.3,23.0,19.4,29.7,16.8,12.6,90,77,68,30.34,29.80,8,2,17,0.00
2013-12-6,19.4,15.3,9.6,13.3,8.9,5.4,84,76,62,30.64,30.31,3,0,6,0.00
2013-12-7,20.4,11.6,4.6,8.5,4.8,1.3,87,75,51,30.78,30.59,1,0,6,0.00
2013-12-8,23.2,19.8,12.1,21.7,16.2,7.2,94,86,76,30.60,30.03,9,2,14,0.00
2013-12-9,23.2,13.9,-1.7,21.2,8.7,-5.6,92,79,67,30.33,30.04,16,5,19,0.00
2013-12-10,24.7,14.3,-2.6,14.8,6.8,-6.0,87,72,56,30.36,30.13,15,4,22,0.00
2013-12-11,22.2,13.7,-0.3,16.7,6.7,-6.6,89,73,59,30.67,30.29,6,1,11,0.00
2013-12-12,18.5,2.9,-1.9,13.9,-1.6,-6.2,85,81,75,30.65,30.26,2,0,3,0.00
2013-12-13,36.5,26.4,11.5,30.0,22.0,8.6,96,84,67,30.26,30.05,7,1,10,0.00
2013-12-14,32.4,26.8,16.6,31.4,25.2,14.1,97,93,88,30.10,29.94,4,1,7,0.00
2013-12-15,17.0,14.3,9.8,14.1,10.1,6.5,89,83,74,30.17,30.07,5,1,11,0.00
2013-12-16,21.2,17.5,13.4,19.1,14.5,10.3,94,88,80,30.17,30.05,4,1,7,0.00
2013-12-17,36.4,26.0,19.1,29.3,21.4,14.9,95,83,65,30.23,30.08,8,4,12,0.00
2013-12-18,37.7,26.6,6.0,31.4,19.4,3.2,92,75,51,30.24,29.88,16,6,22,0.01
2013-12-19,45.7,40.8,35.5,42.2,36.9,31.4,96,86,78,29.90,29.75,8,4,12,0.04
2013-12-20,44.9,35.0,29.2,44.3,34.4,28.5,98,98,95,29.86,29.72,5,1,7,0.20
2013-12-21,32.6,29.6,27.5,31.8,28.8,26.5,97,97,96,29.88,29.60,5,1,8,0.00
2013-12-22,32.7,28.0,17.7,31.9,26.6,15.0,98,94,89,30.25,29.63,6,2,9,0.00
2013-12-23,17.9,8.6,1.7,15.4,4.5,-3.6,90,83,78,30.58,30.25,9,4,13,0.00
2013-12-24,19.9,8.0,-4.1,14.4,3.0,-8.2,87,80,74,30.66,30.37,8,3,14,0.00
2013-12-25,28.3,25.0,19.9,26.3,22.0,14.4,95,89,79,30.38,30.19,11,7,18,0.00
2013-12-26,37.1,28.6,16.0,32.5,24.7,14.1,93,86,74,30.34,30.19,12,4,15,0.00
2013-12-27,44.5,34.6,24.6,36.3,30.5,23.6,96,85,70,30.33,30.15,10,4,17,0.15
2013-12-28,51.7,41.2,33.2,39.7,34.4,30.4,90,78,58,30.15,29.86,11,6,15,0.00
2013-12-29,38.6,23.8,3.5,32.3,20.1,-1.4,94,86,76,30.31,29.82,7,4,11,0.00
2013-12-30,13.0,6.6,-1.3,9.9,1.3,-6.5,89,79,61,30.41,30.24,5,2,7,0.00
2013-12-31,18.5,9.7,4.6,12.9,6.6,1.8,90,87,71,30.45,30.25,5,0,7,0.00
2014-1-1,22.7,18.0,12.2,19.8,15.2,9.8,92,88,84,30.27,30.18,6,2,0,0.00
2014-1-2,15.3,10.1,-3.3,10.3,6.2,-6.4,90,84,77,30.50,30.19,7,4,0,0.00